Boulder Muni, Boulder, CO, CO

7:34 AM MDT on September 23, 2017 (GMT -0600)
Boulder Muni, Boulder, CO

Weather History for KBDU - August, 2013

Change the Weather History Date:

Saturday, August 10, 2013

  Actual Average Record
Temperature  
Mean Temperature 69 °F -  
Max Temperature 87 °F - 91 °F (2016)
Min Temperature 51 °F - 51 °F (2013)
Degree Days  
Heating Degree Days 0    
Month to date heating degree days  
Cooling Degree Days 4    
Month to date cooling degree days  
Growing Degree Days 19 (Base 50)    
Moisture  
Dew Point 44 °F    
Average Humidity 45    
Maximum Humidity 77    
Minimum Humidity 14    
Precipitation  
Precipitation 0.10 in - 0.10 in (2013)
Sea Level Pressure  
Sea Level Pressure 30.21 in    
Wind  
Wind Speed 2 mph (SE)    
Max Wind Speed 13 mph    
Max Gust Speed 17 mph    
Visibility 10 miles    
Events Rain , Thunderstorm    
T = Trace of Precipitation, MM = Missing Value Source: NWS Daily Summary

Daily Weather History Graph

Daily Weather History Graph

Search for Another Location

Airport or City:

Trip Planner

Search our weather history database for the weather conditions in past years. The results will help you decide how hot, cold, wet, or windy it might be!

Date:

Astronomy

Aug. 10, 2013 Rise Set
Actual Time 6:07 AM MDT 8:03 PM MDT
Civil Twilight 5:38 AM MDT 8:33 PM MDT
Nautical Twilight 5:02 AM MDT 9:08 PM MDT
Astronomical Twilight 4:23 AM MDT 9:47 PM MDT
Moon 9:57 AM MDT (8/10) 9:46 PM MDT (8/10)
Length of Visible Light 14h 54m
Length of Day
13h 55m
Waxing Crescent, 14% of the Moon is Illuminated
Aug 10
Waxing Crescent
Aug 14
First Quarter
Aug 20
Full
Aug 28
Last Quarter
Sep 5
New

Hourly Weather History & Observations

Time (MDT) Temp. Dew Point Humidity Pressure Visibility Wind Dir Wind Speed Gust Speed Precip Events Conditions
12:17 AM 60.8 °F 44.6 °F 55% 30.24 in 10.0 mi Calm Calm - N/A   Clear
12:37 AM 59.0 °F 44.6 °F 59% 30.24 in 10.0 mi Calm Calm - N/A   Clear
12:57 AM 59.0 °F 44.6 °F 59% 30.24 in 10.0 mi Calm Calm - N/A   Clear
1:17 AM 55.4 °F 44.6 °F 67% 30.25 in 10.0 mi North 4.6 mph - N/A   Clear
1:37 AM 59.0 °F 44.6 °F 59% 30.25 in 10.0 mi Calm Calm - N/A   Clear
1:57 AM 57.2 °F 46.4 °F 67% 30.26 in 10.0 mi Calm Calm - N/A   Clear
2:17 AM 57.2 °F 46.4 °F 67% 30.26 in 10.0 mi Calm Calm - N/A   Clear
2:37 AM 59.0 °F 44.6 °F 59% 30.26 in 10.0 mi Calm Calm - N/A   Clear
2:57 AM 60.8 °F 44.6 °F 55% 30.25 in 10.0 mi Calm Calm - N/A   Clear
3:17 AM 59.0 °F 42.8 °F 55% 30.25 in 10.0 mi South 4.6 mph - N/A   Clear
3:36 AM 59.0 °F 41.0 °F 51% 30.25 in 10.0 mi SSW 3.5 mph - N/A   Clear
3:57 AM 57.2 °F 41.0 °F 55% 30.25 in 10.0 mi Calm Calm - N/A   Clear
4:17 AM 55.4 °F 41.0 °F 58% 30.24 in 10.0 mi Calm Calm - N/A   Clear
4:37 AM 55.4 °F 44.6 °F 67% 30.24 in 10.0 mi Calm Calm - N/A   Clear
4:57 AM 53.6 °F 44.6 °F 72% 30.24 in 10.0 mi Calm Calm - N/A   Clear
5:17 AM 53.6 °F 44.6 °F 72% 30.24 in 10.0 mi Calm Calm - N/A   Clear
5:37 AM 53.6 °F 44.6 °F 72% 30.24 in 10.0 mi NE 3.5 mph - N/A   Clear
5:57 AM 51.8 °F 44.6 °F 76% 30.24 in 10.0 mi Calm Calm - N/A   Clear
6:17 AM 53.6 °F 46.4 °F 77% 30.25 in 10.0 mi SW 3.5 mph - N/A   Clear
6:37 AM 53.6 °F 44.6 °F 72% 30.25 in 10.0 mi WSW 3.5 mph - N/A   Clear
6:57 AM 55.4 °F 44.6 °F 67% 30.25 in 10.0 mi West 3.5 mph - N/A   Clear
7:17 AM 59.0 °F 44.6 °F 59% 30.25 in 10.0 mi Calm Calm - N/A   Clear
7:37 AM 59.0 °F 44.6 °F 59% 30.25 in 10.0 mi Calm Calm - N/A   Clear
7:57 AM 60.8 °F 42.8 °F 52% 30.26 in 10.0 mi Calm Calm - N/A   Clear
8:17 AM 62.6 °F 46.4 °F 55% 30.27 in 10.0 mi Calm Calm - N/A   Clear
8:37 AM 62.6 °F 44.6 °F 52% 30.27 in 10.0 mi NE 4.6 mph - N/A   Clear
8:57 AM 64.4 °F 46.4 °F 52% 30.27 in 10.0 mi Calm Calm - N/A   Clear
9:17 AM 66.2 °F 44.6 °F 46% 30.27 in 10.0 mi SE 3.5 mph - N/A   Clear
9:37 AM 68.0 °F 44.6 °F 43% 30.26 in 10.0 mi Calm Calm - N/A   Clear
9:57 AM 68.0 °F 42.8 °F 40% 30.26 in 10.0 mi Calm Calm - N/A   Clear
10:17 AM 69.8 °F 42.8 °F 38% 30.26 in 10.0 mi Calm Calm - N/A   Clear
10:37 AM 69.8 °F 42.8 °F 38% 30.25 in 10.0 mi Calm Calm - N/A   Clear
10:57 AM 73.4 °F 42.8 °F 33% 30.24 in 10.0 mi Calm Calm - N/A   Clear
11:17 AM 73.4 °F 44.6 °F 36% 30.24 in 10.0 mi Calm Calm - N/A   Clear
11:37 AM 75.2 °F 42.8 °F 31% 30.23 in 10.0 mi Calm Calm - N/A   Clear
11:57 AM 78.8 °F 42.8 °F 28% 30.22 in 10.0 mi NE 3.5 mph - N/A   Clear
12:17 PM 80.6 °F 41.0 °F 24% 30.21 in 10.0 mi East 3.5 mph - N/A   Clear
12:37 PM 80.6 °F 41.0 °F 24% 30.20 in 10.0 mi ESE 5.8 mph - N/A   Clear
12:57 PM 82.4 °F 41.0 °F 23% 30.20 in 10.0 mi East 3.5 mph - N/A   Clear
1:17 PM 82.4 °F 37.4 °F 20% 30.20 in 10.0 mi East 5.8 mph - N/A   Clear
1:37 PM 84.2 °F 37.4 °F 19% 30.19 in 10.0 mi East 5.8 mph - N/A   Clear
1:57 PM 86.0 °F 39.2 °F 19% 30.18 in 10.0 mi NNE 6.9 mph - N/A   Clear
2:17 PM 86.0 °F 39.2 °F 19% 30.18 in 10.0 mi NNW 9.2 mph - N/A   Clear
2:37 PM 86.0 °F 37.4 °F 18% 30.18 in 10.0 mi NE 10.4 mph - N/A   Clear
2:57 PM 86.0 °F 37.4 °F 18% 30.17 in 10.0 mi ENE 4.6 mph - N/A   Clear
3:17 PM 87.8 °F 35.6 °F 16% 30.16 in 10.0 mi East 5.8 mph - N/A   Clear
3:37 PM 87.8 °F 33.8 °F 15% 30.16 in 10.0 mi ESE 3.5 mph - N/A   Clear
3:57 PM 87.8 °F 33.8 °F 15% 30.15 in 10.0 mi ENE 9.2 mph - N/A   Clear
4:17 PM 87.8 °F 32.0 °F 14% 30.15 in 10.0 mi ESE 3.5 mph - N/A   Clear
4:37 PM 86.0 °F 32.0 °F 14% 30.14 in 10.0 mi Calm Calm - N/A Thunderstorm Thunderstorm
4:57 PM 82.4 °F 41.0 °F 23% 30.14 in 10.0 mi North 10.4 mph - N/A Thunderstorm Thunderstorm
5:17 PM 78.8 °F 41.0 °F 26% 30.14 in 10.0 mi NW 10.4 mph - N/A Thunderstorm Overcast
5:37 PM 69.8 °F 50.0 °F 49% 30.16 in 5.0 mi WSW 3.5 mph 10.4 mph 0.07 in Rain , Thunderstorm Heavy Thunderstorms and Rain
5:57 PM 69.8 °F 53.6 °F 56% 30.16 in 10.0 mi SW 12.7 mph - 0.10 in Rain , Thunderstorm Light Thunderstorms and Rain
6:17 PM 71.6 °F 51.8 °F 50% 30.16 in 10.0 mi South 6.9 mph 17.3 mph N/A   Scattered Clouds
6:37 PM 71.6 °F 51.8 °F 50% 30.17 in 10.0 mi South 4.6 mph - N/A Thunderstorm Clear
6:57 PM 71.6 °F 50.0 °F 46% 30.17 in 10.0 mi South 6.9 mph - N/A   Clear
7:17 PM 71.6 °F 46.4 °F 41% 30.18 in 10.0 mi South 8.1 mph - N/A   Clear
7:37 PM 69.8 °F 46.4 °F 43% 30.17 in 10.0 mi SSW 6.9 mph - N/A   Clear
7:57 PM 69.8 °F 44.6 °F 40% 30.17 in 10.0 mi Calm Calm - N/A   Clear
8:17 PM 69.8 °F 51.8 °F 53% 30.17 in 10.0 mi SSW 5.8 mph - N/A   Clear
8:37 PM 68.0 °F 51.8 °F 56% 30.17 in 10.0 mi SSW 4.6 mph - N/A   Clear
8:57 PM 68.0 °F 51.8 °F 56% 30.18 in 10.0 mi SSE 5.8 mph - N/A   Clear
9:17 PM 71.6 °F 42.8 °F 35% 30.19 in 10.0 mi SSE 11.5 mph 17.3 mph N/A   Scattered Clouds
9:37 PM 69.8 °F 44.6 °F 40% 30.20 in 10.0 mi SSE 6.9 mph - N/A   Clear
9:57 PM 69.8 °F 42.8 °F 38% 30.19 in 10.0 mi SSE 10.4 mph - N/A   Clear
10:17 PM 69.8 °F 42.8 °F 38% 30.20 in 10.0 mi SE 4.6 mph - N/A   Clear
10:37 PM 68.0 °F 44.6 °F 43% 30.18 in 10.0 mi WNW 5.8 mph - N/A   Clear
10:57 PM 66.2 °F 46.4 °F 49% 30.18 in 10.0 mi West 4.6 mph - N/A   Clear
11:17 PM 66.2 °F 46.4 °F 49% 30.19 in 10.0 mi ESE 3.5 mph - N/A   Clear
11:37 PM 66.2 °F 42.8 °F 43% 30.19 in 10.0 mi SSE 5.8 mph - N/A   Scattered Clouds
11:57 PM 66.2 °F 42.8 °F 43% 30.18 in 10.0 mi Calm Calm - N/A   Scattered Clouds